Location: Unspecified
(0.0000°N, 0.0000°E)
Time: 11:26:03
(UTC+00:00)

SRMSAT - Pass Details

Date: 22 July 2019
Orbit: 848 x 865 km, 20.0° (Epoch: 07 December)

Event Time Altitude Azimuth Distance (km) Brightness Sun altitude
Exits shadow 04:38:45 30° 288° (WNW) 1,458 ? -20.5°
Maximum altitude 04:41:46 85° 203° (SSW) 850 ? -19.8°
Drops below altitude 10° 04:47:42 10° 113° (ESE) 2,460 ? -18.4°
Sets 04:50:15 0° 112° (ESE) 3,396 ? -17.8°
